{"data":{"norad_id":58843,"epoch":"2026-05-24T21:50:51.389664Z","epoch_age_seconds":75983,"freshness":"FRESH","line1":"1 58843U 24017T   26144.91031701  .00001191  00000+0  52364-4 0  9996","line2":"2 58843  53.1595 210.4445 0001289  77.9406 282.1739 15.30188062131721","mean_motion":15.30188062,"eccentricity":0.0001289,"inclination_deg":53.1595,"raan_deg":210.4445,"arg_perigee_deg":77.9406,"mean_anomaly_deg":282.1739,"bstar":5.2364e-5,"rev_number":13172,"period_min":94.106079883925,"perigee_km":474.36731269084,"apogee_km":476.13411604361,"semimajor_km":6853.3877143672,"source":"CELESTRAK","updated_at":"2026-05-25T13:38:18.756135Z"}}